Hourly Data Report for January 25, 2001

SHERBROOKE A
QUEBEC

45°26'00.000" N
71°41'00.000" W
241.40 m
7028124
71610
YSC

Download Data

Hourly Data (January 2001)
Hourly Data Report for January 25, 2001
TIME
LST
Temp Definition
°C
Dew Point Definition
°C
Rel Hum Definition
%
Precip. Amount Definition
mm

Wind Dir Definition
10's deg

Wind Spd Definition
km/h
Visibility Definition
km
Stn Press Definition
kPa
Hmdx Definition


Wind Chill Definition


Weather Definition


00:00 -5.7 -7.0 91   21 4 2.7 98.29   -8  
01:00 -3.9 -4.9 93     0 4.0 98.29      
02:00 -4.4 -5.7 91     0 3.1 98.29      
03:00 -5.1 -6.3 91     0 2.1 98.29      
04:00 -5.2 -6.6 90     0 2.1 98.26     Snow
05:00 -6.2 -7.7 89     0 2.4 98.29     Snow
06:00 -5.3 -6.7 90     0 1.6 98.32     Snow
07:00 -5.6 -6.9 91   33 4 0.8 98.36   -7 Snow
08:00 -5.3 -6.6 91     0 4.8 98.45     Snow
09:00 -6.1 -8.0 86   29 11 4.0 98.55   -11 Snow Showers
10:00 -6.9 -9.4 82   28 17 4.8 98.65   -13 Snow Showers
11:00 -8.8 -11.7 79   28 22 19.3 98.72   -17 Mostly Cloudy
12:00 -8.8 -12.5 75   28 19 24.1 98.75   -16 Mainly Clear
13:00 -8.6 -12.3 75   29 11 24.1 98.79   -14 Mostly Cloudy
14:00 -8.8 -12.6 74   27 15 24.1 98.85   -15 Snow Showers
15:00 -9.4 -13.4 73   28 19 24.1 98.95   -17 Snow Showers
16:00 -10.0 -14.3 71   29 15 24.1 99.02   -17 Mainly Clear
17:00 -12.8 -16.0 77   27 11 24.1 99.12   -19 Mainly Clear
18:00 -13.2 -16.0 79   25 6 15.0 99.15   -17  
19:00 -15.6 -17.4 86   24 4 15.0 99.22   -19  
20:00 -13.5 -15.6 84   23 9 15.0 99.25   -19  
21:00 -15.1 -17.0 85   20 9 15.0 99.28   -21  
22:00 -17.5 -18.9 89   18 6 15.0 99.31   -22  
23:00 -17.6 -20.9 75   19 4 15.0 99.31   -21  

Notes on Data Quality.

Legend

  • E = Estimated
  • M = Missing
  • NA = Not Available*
  • [empty] = Indicates an unobserved value
Date modified: